| time (UTC) | temp C | wind direction | speed KPH | gust KPH | rain 1hr cm | rain 24hr cm | rain mn cm | humidity % | barometer mb |
| 20260506004135 | 21 | 174 | 9.7 | 29.0 | 0.00 | 0.00 | 0.00 | 42 | 1009.9 |
| 20260506003636 | 21 | 195 | 11.3 | 29.0 | 0.00 | 0.00 | 0.00 | 42 | 1009.8 |
| 20260506003135 | 21 | 182 | 11.3 | 29.0 | 0.00 | 0.00 | 0.00 | 42 | 1009.7 |
| 20260506002635 | 21 | 178 | 11.3 | 29.0 | 0.00 | 0.00 | 0.00 | 42 | 1009.8 |
| 20260506002128 | 21 | 145 | 9.7 | 29.0 | 0.00 | 0.00 | 0.00 | 43 | 1009.6 |
| 20260506001626 | 21 | 213 | 9.7 | 25.7 | 0.00 | 0.00 | 0.00 | 43 | 1009.6 |
| 20260506001126 | 21 | 192 | 8.0 | 25.7 | 0.00 | 0.00 | 0.00 | 43 | 1009.6 |
| 20260506000630 | 22 | 182 | 8.0 | 22.5 | 0.00 | 0.00 | 0.00 | 43 | 1009.5 |
| 20260506000125 | 22 | 158 | 8.0 | 25.7 | 0.00 | 0.00 | 0.00 | 42 | 1009.4 |
| 20260505235623 | 22 | 185 | 8.0 | 25.7 | 0.00 | 0.00 | 0.00 | 42 | 1009.3 |
| 20260505235123 | 22 | 135 | 9.7 | 22.5 | 0.00 | 0.00 | 0.00 | 42 | 1009.2 |
| 20260505234629 | 22 | 160 | 9.7 | 22.5 | 0.00 | 0.00 | 0.00 | 42 | 1009.2 |
| 20260505234121 | 22 | 218 | 8.0 | 20.9 | 0.00 | 0.00 | 0.00 | 41 | 1009.2 |
| 20260505233622 | 22 | 205 | 9.7 | 25.7 | 0.00 | 0.00 | 0.00 | 42 | 1009.2 |
| 20260505233125 | 22 | 213 | 12.9 | 25.7 | 0.00 | 0.00 | 0.00 | 41 | 1009.2 |
| 20260505232625 | 22 | 213 | 12.9 | 29.0 | 0.00 | 0.00 | 0.00 | 40 | 1009.3 |
| 20260505232122 | 23 | 193 | 12.9 | 32.2 | 0.00 | 0.00 | 0.00 | 40 | 1009.2 |
| 20260505231619 | 23 | 159 | 12.9 | 35.4 | 0.00 | 0.00 | 0.00 | 40 | 1009.1 |
| 20260505231125 | 23 | 205 | 11.3 | 35.4 | 0.00 | 0.00 | 0.00 | 41 | 1009.2 |
| 20260505230622 | 23 | 204 | 11.3 | 22.5 | 0.00 | 0.00 | 0.00 | 42 | 1009.2 |
| 20260505230114 | 23 | 181 | 9.7 | 27.4 | 0.00 | 0.00 | 0.00 | 42 | 1009.1 |
| 20260505225615 | 23 | 167 | 9.7 | 27.4 | 0.00 | 0.00 | 0.00 | 42 | 1009.2 |
| 20260505225114 | 23 | 190 | 11.3 | 27.4 | 0.00 | 0.00 | 0.00 | 42 | 1009.3 |
| 20260505224615 | 23 | 212 | 11.3 | 27.4 | 0.00 | 0.00 | 0.00 | 42 | 1009.3 |
| 20260505224118 | 23 | 208 | 12.9 | 27.4 | 0.00 | 0.00 | 0.00 | 43 | 1009.4 |
| 20260505223609 | 23 | 193 | 12.9 | 30.6 | 0.00 | 0.00 | 0.00 | 42 | 1009.4 |
| 20260505223117 | 23 | 162 | 12.9 | 30.6 | 0.00 | 0.00 | 0.00 | 41 | 1009.4 |
| 20260505222109 | 23 | 197 | 11.3 | 25.7 | 0.00 | 0.00 | 0.00 | 43 | 1009.3 |
| 20260505221615 | 23 | 157 | 9.7 | 25.7 | 0.00 | 0.00 | 0.00 | 42 | 1009.2 |
| 20260505221111 | 23 | 192 | 9.7 | 25.7 | 0.00 | 0.00 | 0.00 | 44 | 1009.2 |
| 20260505220608 | 23 | 199 | 9.7 | 25.7 | 0.00 | 0.00 | 0.00 | 43 | 1009.4 |
| 20260505220117 | 23 | 189 | 9.7 | 20.9 | 0.00 | 0.00 | 0.00 | 44 | 1009.2 |
| 20260505215611 | 23 | 188 | 9.7 | 19.3 | 0.00 | 0.00 | 0.00 | 44 | 1009.3 |
| 20260505215113 | 23 | 153 | 9.7 | 20.9 | 0.00 | 0.00 | 0.00 | 45 | 1009.4 |
| 20260505214609 | 23 | 187 | 11.3 | 24.1 | 0.00 | 0.00 | 0.00 | 43 | 1009.3 |
| 20260505214108 | 23 | 207 | 12.9 | 33.8 | 0.00 | 0.00 | 0.00 | 43 | 1009.3 |
| 20260505213607 | 23 | 161 | 12.9 | 33.8 | 0.00 | 0.00 | 0.00 | 42 | 1009.4 |
| 20260505213109 | 23 | 193 | 14.5 | 37.0 | 0.00 | 0.00 | 0.00 | 42 | 1009.3 |
| 20260505212613 | 24 | 222 | 16.1 | 37.0 | 0.00 | 0.00 | 0.00 | 41 | 1009.4 |
| 20260505212126 | 24 | 195 | 16.1 | 35.4 | 0.00 | 0.00 | 0.00 | 42 | 1009.3 |
| 20260505211637 | 24 | 186 | 12.9 | 33.8 | 0.00 | 0.00 | 0.00 | 43 | 1009.1 |
| 20260505211138 | 25 | 228 | 12.9 | 30.6 | 0.00 | 0.00 | 0.00 | 44 | 1009.1 |
| 20260505210618 | 25 | 229 | 14.5 | 30.6 | 0.00 | 0.00 | 0.00 | 43 | 1009.2 |
| 20260505210115 | 25 | 178 | 14.5 | 37.0 | 0.00 | 0.00 | 0.00 | 43 | 1009.1 |
| 20260505205611 | 25 | 168 | 14.5 | 37.0 | 0.00 | 0.00 | 0.00 | 43 | 1009.1 |
| 20260505205110 | 26 | 164 | 12.9 | 30.6 | 0.00 | 0.00 | 0.00 | 43 | 1009.1 |
| 20260505204605 | 26 | 162 | 12.9 | 30.6 | 0.00 | 0.00 | 0.00 | 41 | 1009.1 |
| 20260505204107 | 26 | 219 | 11.3 | 27.4 | 0.00 | 0.00 | 0.00 | 46 | 1009.1 |
| 20260505203607 | 26 | 226 | 11.3 | 30.6 | 0.00 | 0.00 | 0.00 | 45 | 1009.1 |
| 20260505203058 | 26 | 224 | 9.7 | 30.6 | 0.00 | 0.00 | 0.00 | 42 | 1009.0 |
| 20260505202558 | 26 | 230 | 12.9 | 30.6 | 0.00 | 0.00 | 0.00 | 41 | 1009.1 |
| 20260505202058 | 26 | 174 | 12.9 | 30.6 | 0.00 | 0.00 | 0.00 | 42 | 1008.9 |
| 20260505201553 | 26 | 213 | 12.9 | 32.2 | 0.00 | 0.00 | 0.00 | 46 | 1009.3 |
| 20260505201103 | 26 | 170 | 11.3 | 32.2 | 0.00 | 0.00 | 0.00 | 43 | 1009.1 |
| 20260505200555 | 26 | 220 | 9.7 | 29.0 | 0.00 | 0.00 | 0.00 | 49 | 1009.2 |
| 20260505200055 | 25 | 243 | 12.9 | 30.6 | 0.00 | 0.00 | 0.00 | 48 | 1009.3 |
| 20260505195554 | 25 | 208 | 12.9 | 30.6 | 0.00 | 0.00 | 0.00 | 44 | 1009.2 |
| 20260505195052 | 26 | 228 | 12.9 | 29.0 | 0.00 | 0.00 | 0.00 | 45 | 1009.4 |
| 20260505194551 | 26 | 198 | 12.9 | 29.0 | 0.00 | 0.00 | 0.00 | 45 | 1009.4 |
| 20260505194052 | 25 | 154 | 12.9 | 27.4 | 0.00 | 0.00 | 0.00 | 48 | 1009.4 |
| 20260505193553 | 25 | 178 | 12.9 | 29.0 | 0.00 | 0.00 | 0.00 | 46 | 1009.5 |
| 20260505193050 | 25 | 213 | 12.9 | 29.0 | 0.00 | 0.00 | 0.00 | 48 | 1009.6 |
| 20260505192550 | 25 | 168 | 11.3 | 25.7 | 0.00 | 0.00 | 0.00 | 46 | 1009.6 |
| 20260505192049 | 25 | 165 | 11.3 | 27.4 | 0.00 | 0.00 | 0.00 | 47 | 1009.7 |
| 20260505191548 | 25 | 217 | 11.3 | 30.6 | 0.00 | 0.00 | 0.00 | 49 | 1009.7 |
| 20260505191050 | 25 | 161 | 12.9 | 30.6 | 0.00 | 0.00 | 0.00 | 47 | 1009.8 |
| 20260505190550 | 25 | 176 | 14.5 | 33.8 | 0.00 | 0.00 | 0.00 | 47 | 1009.8 |
| 20260505190049 | 25 | 177 | 14.5 | 33.8 | 0.00 | 0.00 | 0.00 | 45 | 1009.9 |
| 20260505185548 | 25 | 165 | 11.3 | 33.8 | 0.00 | 0.00 | 0.00 | 45 | 1010.0 |
| 20260505185051 | 25 | 209 | 11.3 | 33.8 | 0.00 | 0.00 | 0.00 | 46 | 1010.1 |
| 20260505184552 | 25 | 214 | 12.9 | 37.0 | 0.00 | 0.00 | 0.00 | 46 | 1010.0 |
| 20260505184049 | 25 | 170 | 11.3 | 37.0 | 0.00 | 0.00 | 0.00 | 47 | 1010.3 |
| 20260505183550 | 25 | 196 | 9.7 | 22.5 | 0.00 | 0.00 | 0.00 | 50 | 1010.1 |
| 20260505183049 | 25 | 163 | 12.9 | 33.8 | 0.00 | 0.00 | 0.00 | 50 | 1010.3 |
| 20260505182548 | 25 | 166 | 14.5 | 35.4 | 0.00 | 0.00 | 0.00 | 46 | 1010.5 |
| 20260505182052 | 25 | 182 | 14.5 | 35.4 | 0.00 | 0.00 | 0.00 | 48 | 1010.6 |
| 20260505181548 | 25 | 182 | 12.9 | 30.6 | 0.00 | 0.00 | 0.00 | 47 | 1010.5 |
| 20260505181048 | 25 | 169 | 9.7 | 25.7 | 0.00 | 0.00 | 0.00 | 46 | 1010.7 |
| 20260505180548 | 25 | 231 | 9.7 | 30.6 | 0.00 | 0.00 | 0.00 | 51 | 1010.6 |
| 20260505180050 | 25 | 224 | 11.3 | 30.6 | 0.00 | 0.00 | 0.00 | 50 | 1010.7 |
| 20260505175548 | 25 | 245 | 11.3 | 29.0 | 0.00 | 0.00 | 0.00 | 53 | 1010.7 |
| 20260505175049 | 25 | 242 | 11.3 | 32.2 | 0.00 | 0.00 | 0.00 | 48 | 1010.8 |
| 20260505174549 | 25 | 214 | 11.3 | 32.2 | 0.00 | 0.00 | 0.00 | 48 | 1010.8 |
| 20260505174049 | 25 | 222 | 11.3 | 20.9 | 0.00 | 0.00 | 0.00 | 47 | 1010.7 |
| 20260505173549 | 25 | 220 | 12.9 | 24.1 | 0.00 | 0.00 | 0.00 | 50 | 1010.7 |
| 20260505173049 | 25 | 260 | 12.9 | 33.8 | 0.00 | 0.00 | 0.00 | 50 | 1010.9 |
| 20260505172549 | 25 | 211 | 12.9 | 33.8 | 0.00 | 0.00 | 0.00 | 46 | 1010.9 |
| 20260505172048 | 24 | 257 | 12.9 | 29.0 | 0.00 | 0.00 | 0.00 | 52 | 1010.8 |
| 20260505171547 | 25 | 255 | 12.9 | 33.8 | 0.00 | 0.00 | 0.00 | 50 | 1010.9 |
| 20260505171047 | 25 | 240 | 11.3 | 33.8 | 0.00 | 0.00 | 0.00 | 53 | 1010.9 |
| 20260505170546 | 25 | 208 | 9.7 | 22.5 | 0.00 | 0.00 | 0.00 | 51 | 1011.0 |
| 20260505170045 | 24 | 184 | 9.7 | 22.5 | 0.00 | 0.00 | 0.00 | 51 | 1010.9 |
| 20260505165550 | 24 | 217 | 11.3 | 24.1 | 0.00 | 0.00 | 0.00 | 52 | 1011.0 |
| 20260505165049 | 24 | 216 | 12.9 | 30.6 | 0.00 | 0.00 | 0.00 | 53 | 1011.1 |
| 20260505164546 | 24 | 192 | 12.9 | 30.6 | 0.00 | 0.00 | 0.00 | 52 | 1011.2 |
| 20260505164049 | 24 | 203 | 12.9 | 27.4 | 0.00 | 0.00 | 0.00 | 51 | 1011.3 |
| 20260505163544 | 24 | 205 | 14.5 | 29.0 | 0.00 | 0.00 | 0.00 | 49 | 1011.4 |
| 20260505163044 | 24 | 201 | 12.9 | 29.0 | 0.00 | 0.00 | 0.00 | 51 | 1011.4 |
| 20260505162545 | 23 | 181 | 11.3 | 29.0 | 0.00 | 0.00 | 0.00 | 52 | 1011.5 |
| 20260505162046 | 23 | 223 | 12.9 | 29.0 | 0.00 | 0.00 | 0.00 | 49 | 1011.6 |
| 20260505161548 | 23 | 198 | 11.3 | 24.1 | 0.00 | 0.00 | 0.00 | 52 | 1011.7 |
| 20260505161045 | 23 | 142 | 11.3 | 29.0 | 0.00 | 0.00 | 0.00 | 53 | 1011.7 |
| 20260505160545 | 23 | 188 | 11.3 | 29.0 | 0.00 | 0.00 | 0.00 | 54 | 1011.8 |
| 20260505153043 | 23 | 268 | 11.3 | 22.5 | 0.00 | 0.00 | 0.00 | 56 | 1011.9 |
| 20260505152546 | 23 | 217 | 9.7 | 25.7 | 0.00 | 0.00 | 0.00 | 52 | 1011.9 |
| 20260505152043 | 23 | 242 | 11.3 | 25.7 | 0.00 | 0.00 | 0.00 | 56 | 1012.1 |
| 20260505151543 | 22 | 257 | 11.3 | 25.7 | 0.00 | 0.00 | 0.00 | 56 | 1012.0 |
| 20260505151043 | 22 | 223 | 9.7 | 24.1 | 0.00 | 0.00 | 0.00 | 56 | 1011.9 |
| 20260505150543 | 22 | 224 | 9.7 | 24.1 | 0.00 | 0.00 | 0.00 | 54 | 1011.9 |
| 20260505140537 | 21 | 238 | 8.0 | 19.3 | 0.00 | 0.00 | 0.00 | 64 | 1011.9 |
| 20260505125038 | 17 | 230 | 9.7 | 19.3 | 0.00 | 0.00 | 0.00 | 68 | 1012.2 |
| 20260505124543 | 16 | 234 | 8.0 | 19.3 | 0.00 | 0.00 | 0.00 | 70 | 1012.3 |
| 20260505124034 | 16 | 240 | 8.0 | 19.3 | 0.00 | 0.00 | 0.00 | 71 | 1012.4 |
| 20260505123537 | 16 | 227 | 6.4 | 17.7 | 0.00 | 0.00 | 0.00 | 71 | 1012.5 |
| 20260505123035 | 15 | 214 | 4.8 | 17.7 | 0.00 | 0.00 | 0.00 | 74 | 1012.6 |
| 20260505122534 | 15 | 221 | 4.8 | 17.7 | 0.00 | 0.00 | 0.00 | 72 | 1012.6 |
| 20260505122036 | 15 | 197 | 3.2 | 9.7 | 0.00 | 0.00 | 0.00 | 74 | 1012.6 |
| 20260505121532 | 15 | 200 | 3.2 | 9.7 | 0.00 | 0.00 | 0.00 | 75 | 1012.6 |
| 20260505121035 | 15 | 208 | 4.8 | 16.1 | 0.00 | 0.00 | 0.00 | 74 | 1012.6 |
| 20260505120033 | 15 | 210 | 4.8 | 14.5 | 0.00 | 0.00 | 0.00 | 74 | 1012.7 |
| 20260505115532 | 14 | 165 | 6.4 | 14.5 | 0.00 | 0.00 | 0.00 | 74 | 1012.6 |
| 20260505115040 | 14 | 163 | 6.4 | 14.5 | 0.00 | 0.00 | 0.00 | 77 | 1012.5 |
| 20260505114534 | 13 | 140 | 4.8 | 14.5 | 0.00 | 0.00 | 0.00 | 79 | 1012.4 |
| 20260505114035 | 13 | 182 | 3.2 | 9.7 | 0.00 | 0.00 | 0.00 | 77 | 1012.3 |
| 20260505113532 | 13 | 177 | 1.6 | 8.0 | 0.00 | 0.00 | 0.00 | 77 | 1012.3 |
| 20260505113034 | 13 | 209 | 1.6 | 6.4 | 0.00 | 0.00 | 0.00 | 78 | 1012.2 |
| 20260505112532 | 13 | 208 | 0.0 | 4.8 | 0.00 | 0.00 | 0.00 | 77 | 1012.1 |
| 20260505112039 | 13 | 208 | 1.6 | 3.2 | 0.00 | 0.00 | 0.00 | 77 | 1012.1 |
| 20260505111532 | 13 | 208 | 1.6 | 6.4 | 0.00 | 0.00 | 0.00 | 76 | 1011.9 |
| 20260505111033 | 13 | 208 | 3.2 | 9.7 | 0.00 | 0.00 | 0.00 | 75 | 1011.9 |
| 20260505110532 | 13 | 195 | 4.8 | 14.5 | 0.00 | 0.00 | 0.00 | 75 | 1011.9 |
| 20260505102028 | 13 | 196 | 4.8 | 9.7 | 0.00 | 0.00 | 0.00 | 73 | 1011.4 |
| 20260505101525 | 13 | 218 | 4.8 | 11.3 | 0.00 | 0.00 | 0.00 | 73 | 1011.3 |
| 20260505101017 | 13 | 189 | 3.2 | 11.3 | 0.00 | 0.00 | 0.00 | 73 | 1011.3 |
| 20260505100521 | 13 | 202 | 3.2 | 11.3 | 0.00 | 0.00 | 0.00 | 74 | 1011.4 |
| 20260505100016 | 13 | 191 | 4.8 | 12.9 | 0.00 | 0.00 | 0.00 | 74 | 1011.3 |
| 20260505095513 | 13 | 205 | 3.2 | 12.9 | 0.00 | 0.00 | 0.00 | 74 | 1011.4 |
| 20260505095012 | 13 | 162 | 3.2 | 19.3 | 0.00 | 0.00 | 0.00 | 74 | 1011.3 |
| 20260505094511 | 14 | 228 | 4.8 | 19.3 | 0.00 | 0.00 | 0.00 | 73 | 1011.3 |
| 20260505094012 | 14 | 211 | 4.8 | 14.5 | 0.00 | 0.00 | 0.00 | 73 | 1011.3 |
| 20260505093011 | 14 | 180 | 4.8 | 14.5 | 0.00 | 0.00 | 0.00 | 72 | 1011.4 |
| 20260505092511 | 15 | 177 | 6.4 | 17.7 | 0.00 | 0.00 | 0.00 | 71 | 1011.4 |
| 20260505092011 | 15 | 172 | 8.0 | 17.7 | 0.00 | 0.00 | 0.00 | 70 | 1011.3 |
| 20260505091512 | 15 | 170 | 8.0 | 16.1 | 0.00 | 0.00 | 0.00 | 71 | 1011.3 |
| 20260505091009 | 15 | 168 | 6.4 | 16.1 | 0.00 | 0.00 | 0.00 | 70 | 1011.3 |
| 20260505090507 | 14 | 208 | 4.8 | 16.1 | 0.00 | 0.00 | 0.00 | 71 | 1011.2 |
| 20260505090010 | 14 | 174 | 6.4 | 20.9 | 0.00 | 0.00 | 0.00 | 72 | 1011.3 |
| 20260505085507 | 14 | 242 | 6.4 | 20.9 | 0.00 | 0.00 | 0.00 | 72 | 1011.2 |
| 20260505085004 | 14 | 232 | 6.4 | 14.5 | 0.00 | 0.00 | 0.00 | 73 | 1011.3 |
| 20260505084505 | 14 | 238 | 4.8 | 14.5 | 0.00 | 0.00 | 0.00 | 73 | 1011.2 |
| 20260505084011 | 14 | 221 | 3.2 | 12.9 | 0.00 | 0.00 | 0.00 | 74 | 1011.2 |
| 20260505083503 | 14 | 244 | 3.2 | 14.5 | 0.00 | 0.00 | 0.00 | 73 | 1011.1 |
| 20260505083003 | 14 | 220 | 3.2 | 14.5 | 0.00 | 0.00 | 0.00 | 74 | 1011.1 |
| 20260505082502 | 13 | 211 | 3.2 | 8.0 | 0.00 | 0.00 | 0.00 | 74 | 1011.0 |
| 20260505082003 | 13 | 204 | 3.2 | 8.0 | 0.00 | 0.00 | 0.00 | 75 | 1011.1 |
| 20260505081502 | 13 | 155 | 3.2 | 11.3 | 0.00 | 0.00 | 0.00 | 75 | 1011.1 |
| 20260505081005 | 13 | 155 | 6.4 | 14.5 | 0.00 | 0.00 | 0.00 | 76 | 1011.2 |
| 20260505080504 | 13 | 156 | 6.4 | 14.5 | 0.00 | 0.00 | 0.00 | 76 | 1011.2 |
| 20260505080004 | 13 | 153 | 6.4 | 12.9 | 0.00 | 0.00 | 0.00 | 76 | 1011.2 |
| 20260505075505 | 13 | 143 | 8.0 | 16.1 | 0.00 | 0.00 | 0.00 | 77 | 1011.1 |
| 20260505075003 | 13 | 136 | 8.0 | 16.1 | 0.00 | 0.00 | 0.00 | 77 | 1011.1 |
| 20260505074503 | 13 | 142 | 8.0 | 12.9 | 0.00 | 0.00 | 0.00 | 78 | 1011.1 |
| 20260505074004 | 13 | 138 | 6.4 | 12.9 | 0.00 | 0.00 | 0.00 | 78 | 1011.0 |
| 20260505073504 | 13 | 158 | 4.8 | 11.3 | 0.00 | 0.00 | 0.00 | 79 | 1011.0 |
| 20260505073004 | 13 | 159 | 4.8 | 9.7 | 0.00 | 0.00 | 0.00 | 80 | 1011.0 |
| 20260505072502 | 12 | 167 | 4.8 | 9.7 | 0.00 | 0.00 | 0.00 | 80 | 1011.0 |
| 20260505072001 | 12 | 169 | 4.8 | 9.7 | 0.00 | 0.00 | 0.00 | 81 | 1011.0 |
| 20260505071502 | 12 | 170 | 4.8 | 9.7 | 0.00 | 0.00 | 0.00 | 81 | 1011.0 |
| 20260505071000 | 12 | 181 | 1.6 | 8.0 | 0.00 | 0.00 | 0.00 | 81 | 1011.0 |
| 20260505070501 | 12 | 236 | 1.6 | 4.8 | 0.00 | 0.00 | 0.00 | 80 | 1010.9 |
| 20260505070000 | 12 | 236 | 1.6 | 4.8 | 0.00 | 0.00 | 0.00 | 80 | 1010.9 |
| 20260505065458 | 12 | 237 | 0.0 | 3.2 | 0.00 | 0.00 | 0.00 | 80 | 1010.8 |
| 20260505065002 | 12 | 238 | 0.0 | 4.8 | 0.00 | 0.00 | 0.00 | 79 | 1011.0 |
| 20260505064456 | 12 | 238 | 1.6 | 4.8 | 0.00 | 0.00 | 0.00 | 79 | 1011.0 |
| 20260505063958 | 12 | 240 | 3.2 | 8.0 | 0.00 | 0.00 | 0.00 | 78 | 1011.1 |
| 20260505063458 | 13 | 240 | 3.2 | 8.0 | 0.00 | 0.00 | 0.00 | 77 | 1011.1 |
| 20260505062959 | 13 | 162 | 3.2 | 8.0 | 0.00 | 0.00 | 0.00 | 76 | 1011.0 |
| 20260505062457 | 13 | 161 | 3.2 | 4.8 | 0.00 | 0.00 | 0.00 | 75 | 1011.0 |
| 20260505061954 | 13 | 161 | 4.8 | 6.4 | 0.00 | 0.00 | 0.00 | 75 | 1011.0 |
| 20260505061452 | 13 | 161 | 4.8 | 6.4 | 0.00 | 0.00 | 0.00 | 76 | 1010.9 |
| 20260505060953 | 13 | 164 | 3.2 | 8.0 | 0.00 | 0.00 | 0.00 | 76 | 1011.0 |
| 20260505060453 | 13 | 165 | 1.6 | 8.0 | 0.00 | 0.00 | 0.00 | 77 | 1011.1 |
| 20260505055954 | 13 | 165 | 1.6 | 3.2 | 0.00 | 0.00 | 0.00 | 77 | 1011.0 |
| 20260505055456 | 13 | 165 | 0.0 | 3.2 | 0.00 | 0.00 | 0.00 | 76 | 1011.1 |
| 20260505054954 | 13 | 165 | 0.0 | 1.6 | 0.00 | 0.00 | 0.00 | 75 | 1011.1 |
| 20260505054448 | 13 | 165 | 1.6 | 8.0 | 0.00 | 0.00 | 0.00 | 74 | 1011.2 |
| 20260505053955 | 13 | 165 | 1.6 | 8.0 | 0.00 | 0.00 | 0.00 | 74 | 1011.1 |
| 20260505053451 | 14 | 165 | 3.2 | 8.0 | 0.00 | 0.00 | 0.00 | 73 | 1011.0 |
| 20260505052949 | 14 | 165 | 4.8 | 8.0 | 0.00 | 0.00 | 0.00 | 73 | 1011.1 |
| 20260505052447 | 14 | 182 | 6.4 | 9.7 | 0.00 | 0.00 | 0.00 | 72 | 1011.1 |
| 20260505051946 | 14 | 184 | 6.4 | 11.3 | 0.00 | 0.00 | 0.00 | 72 | 1011.0 |
| 20260505051445 | 15 | 139 | 6.4 | 14.5 | 0.00 | 0.00 | 0.00 | 71 | 1011.0 |
| 20260505050944 | 15 | 139 | 8.0 | 16.1 | 0.00 | 0.00 | 0.00 | 71 | 1011.0 |
| 20260505050439 | 15 | 202 | 9.7 | 17.7 | 0.00 | 0.00 | 0.00 | 71 | 1011.0 |
| 20260505041444 | 16 | 157 | 9.7 | 24.1 | 0.00 | 0.00 | 0.00 | 67 | 1010.8 |
| 20260505040940 | 16 | 157 | 8.0 | 24.1 | 0.00 | 0.00 | 0.00 | 67 | 1010.8 |
| 20260505040438 | 16 | 173 | 6.4 | 16.1 | 0.00 | 0.00 | 0.00 | 66 | 1010.8 |
| 20260505035937 | 16 | 168 | 6.4 | 16.1 | 0.00 | 0.00 | 0.00 | 66 | 1010.8 |
| 20260505035439 | 16 | 193 | 6.4 | 16.1 | 0.00 | 0.00 | 0.00 | 66 | 1010.7 |
| 20260505034940 | 16 | 182 | 6.4 | 16.1 | 0.00 | 0.00 | 0.00 | 66 | 1010.6 |
| 20260505034437 | 16 | 186 | 6.4 | 16.1 | 0.00 | 0.00 | 0.00 | 66 | 1010.7 |
| 20260505033936 | 16 | 233 | 6.4 | 16.1 | 0.00 | 0.00 | 0.00 | 65 | 1010.7 |
| 20260505033435 | 16 | 143 | 6.4 | 14.5 | 0.00 | 0.00 | 0.00 | 65 | 1010.7 |
| 20260505032942 | 16 | 203 | 6.4 | 14.5 | 0.00 | 0.00 | 0.00 | 64 | 1010.7 |
| 20260505032440 | 17 | 188 | 6.4 | 16.1 | 0.00 | 0.00 | 0.00 | 63 | 1010.7 |
| 20260505031936 | 17 | 170 | 8.0 | 17.7 | 0.00 | 0.00 | 0.00 | 63 | 1010.7 |
| 20260505031437 | 17 | 211 | 8.0 | 29.0 | 0.00 | 0.00 | 0.00 | 62 | 1010.8 |
| 20260505030935 | 17 | 208 | 8.0 | 29.0 | 0.00 | 0.00 | 0.00 | 62 | 1010.9 |
| 20260505030435 | 17 | 210 | 8.0 | 19.3 | 0.00 | 0.00 | 0.00 | 62 | 1010.8 |
| 20260505025936 | 17 | 214 | 6.4 | 19.3 | 0.00 | 0.00 | 0.00 | 62 | 1010.8 |
| 20260505025436 | 17 | 217 | 6.4 | 16.1 | 0.00 | 0.00 | 0.00 | 62 | 1010.9 |
| 20260505024933 | 17 | 217 | 8.0 | 16.1 | 0.00 | 0.00 | 0.00 | 61 | 1011.0 |
| 20260505024443 | 17 | 201 | 6.4 | 12.9 | 0.00 | 0.00 | 0.00 | 62 | 1010.9 |
| 20260505023933 | 17 | 180 | 6.4 | 17.7 | 0.00 | 0.00 | 0.00 | 61 | 1011.0 |
| 20260505023436 | 17 | 230 | 8.0 | 17.7 | 0.00 | 0.00 | 0.00 | 61 | 1010.9 |
| 20260505022931 | 17 | 213 | 8.0 | 22.5 | 0.00 | 0.00 | 0.00 | 61 | 1010.8 |
| 20260505022429 | 17 | 240 | 6.4 | 22.5 | 0.00 | 0.00 | 0.00 | 61 | 1010.9 |
| 20260505021932 | 17 | 220 | 8.0 | 17.7 | 0.00 | 0.00 | 0.00 | 61 | 1010.8 |
| 20260505021428 | 17 | 177 | 8.0 | 20.9 | 0.00 | 0.00 | 0.00 | 61 | 1010.8 |
| 20260505020930 | 17 | 257 | 8.0 | 22.5 | 0.00 | 0.00 | 0.00 | 61 | 1010.8 |
| 20260505020427 | 17 | 189 | 6.4 | 22.5 | 0.00 | 0.00 | 0.00 | 60 | 1010.8 |
| 20260505015928 | 17 | 193 | 6.4 | 14.5 | 0.00 | 0.00 | 0.00 | 61 | 1010.9 |
| 20260505015427 | 17 | 170 | 6.4 | 14.5 | 0.00 | 0.00 | 0.00 | 60 | 1010.7 |
| 20260505014926 | 17 | 178 | 6.4 | 16.1 | 0.00 | 0.00 | 0.00 | 59 | 1010.7 |
| 20260505014424 | 18 | 195 | 6.4 | 16.1 | 0.00 | 0.00 | 0.00 | 59 | 1010.6 |
| 20260505013922 | 18 | 204 | 6.4 | 19.3 | 0.00 | 0.00 | 0.00 | 58 | 1010.6 |
| 20260505013419 | 18 | 177 | 6.4 | 19.3 | 0.00 | 0.00 | 0.00 | 58 | 1010.5 |
| 20260505012919 | 18 | 148 | 8.0 | 19.3 | 0.00 | 0.00 | 0.00 | 58 | 1010.4 |
| 20260505012422 | 18 | 174 | 6.4 | 19.3 | 0.00 | 0.00 | 0.00 | 58 | 1010.4 |
| 20260505011920 | 18 | 183 | 6.4 | 17.7 | 0.00 | 0.00 | 0.00 | 57 | 1010.3 |
| 20260505011423 | 18 | 209 | 6.4 | 17.7 | 0.00 | 0.00 | 0.00 | 57 | 1010.4 |
| 20260505010919 | 18 | 199 | 6.4 | 16.1 | 0.00 | 0.00 | 0.00 | 57 | 1010.4 |
| 20260505010420 | 18 | 178 | 6.4 | 11.3 | 0.00 | 0.00 | 0.00 | 57 | 1010.3 |
| 20260505005919 | 18 | 147 | 6.4 | 14.5 | 0.00 | 0.00 | 0.00 | 56 | 1010.1 |
| 20260505005422 | 18 | 217 | 6.4 | 14.5 | 0.00 | 0.00 | 0.00 | 55 | 1010.0 |
| 20260505004920 | 18 | 175 | 6.4 | 17.7 | 0.00 | 0.00 | 0.00 | 55 | 1009.8 |